Location: Aulnoy
(48.8410°N, 3.0967°E)
Time: 00:06:15
(UTC+00:00)

Cosmos 2184 Rocket - Pass Details

Date: 09 February 2023
Orbit: 958 x 1002 km, 82.9° (Epoch: 01 April)

Event Time Altitude Azimuth Distance (km) Brightness Sun altitude
Rises 18:56:22 0° 354° (N) 3,703 7.1 -19.9°
Reaches altitude 10° 18:59:02 10° 1° (N) 2,744 6.4 -20.3°
Maximum altitude 19:05:02 45° 73° (ENE) 1,301 4.2 -21.3°
Enters shadow 19:06:22 40° 106° (ESE) 1,406 4.3 -21.5°
